Location: Goettingen
(51.5300°N, 9.9433°E)
Time: 00:44:07
(UTC+02:00)

ISS - Pass Details

Date: 29 May 2017
Orbit: 402 x 408 km, 51.6° (Epoch: 30 May)

Event Time Altitude Azimuth Distance (km) Brightness Sun altitude
Rises 00:48:45 0° 280° (W) 2,335 0.3 -16.6°
Reaches altitude 10° 00:50:50 10° 279° (W) 1,472 -0.8 -16.6°
Maximum altitude 00:54:08 77° 193° (SSW) 423 -4.0 -16.7°
Enters shadow 00:56:00 23° 110° (ESE) 905 -2.3 -16.7°
